{"data":{"norad_id":68134,"epoch":"2026-05-25T00:34:27.488064Z","epoch_age_seconds":66293,"freshness":"FRESH","line1":"1 68134U 26047F   26145.02392926 -.00000088  00000+0  76709-4 0  9991","line2":"2 68134  50.0052 139.0551 0000528 348.6766  11.4094 13.29331900  9981","mean_motion":13.293319,"eccentricity":5.28e-5,"inclination_deg":50.0052,"raan_deg":139.0551,"arg_perigee_deg":348.6766,"mean_anomaly_deg":11.4094,"bstar":7.6709e-5,"rev_number":998,"period_min":108.32509172465,"perigee_km":1148.8868511918,"apogee_km":1149.681746881,"semimajor_km":7527.4212990364,"source":"CELESTRAK","updated_at":"2026-05-25T13:38:07.576909Z"}}